Location: Capannuccia
(43.7000°N, 11.3000°E)
Time: 11:50:01
(UTC+00:00)

X-37B - Pass Details

Date: 02 August 2021
Orbit: 381 x 393 km, 45.0° (Epoch: 29 August)

Event Time Altitude Azimuth Distance (km) Brightness Sun altitude
Exits shadow 02:35:52 23° 186° (S) 858 1.9 -14.1°
Maximum altitude 02:36:53 28° 151° (SSE) 741 1.8 -14.0°
Drops below altitude 10° 02:39:39 10° 89° (E) 1,397 4.1 -13.6°
Sets 02:41:52 0° 78° (ENE) 2,253 5.6 -13.3°
